| time (UTC) | temp F | wind direction | speed MPH | gust MPH | rain 1hr in | rain 24hr in | rain mn in | humidity % | barometer mb |
| 20260903183959 | 97 | 250 | 5.0 | 9.0 | 0.00 | 0.00 | 0.00 | 43 | 1054.3 |
| 20260903183453 | 97 | 112 | 4.0 | 7.0 | 0.00 | 0.00 | 0.00 | 46 | 1054.2 |
| 20260903182953 | 96 | 164 | 6.0 | 10.0 | 0.00 | 0.00 | 0.00 | 44 | 1054.3 |
| 20260903182452 | 96 | 168 | 4.0 | 9.0 | 0.00 | 0.00 | 0.00 | 46 | 1054.5 |
| 20260903181948 | 96 | 186 | 4.0 | 9.0 | 0.00 | 0.00 | 0.00 | 47 | 1054.7 |
| 20260903181441 | 98 | 156 | 6.0 | 8.0 | 0.00 | 0.00 | 0.00 | 46 | 1054.5 |
| 20260903180936 | 96 | 141 | 3.0 | 7.0 | 0.00 | 0.00 | 0.00 | 48 | 1054.7 |
| 20260903180431 | 95 | 192 | 7.0 | 13.0 | 0.00 | 0.00 | 0.00 | 47 | 1054.8 |
| 20260903175931 | 94 | 133 | 1.0 | 10.0 | 0.00 | 0.00 | 0.00 | 50 | 1054.7 |
| 20260903175425 | 96 | 234 | 5.0 | 11.0 | 0.00 | 0.00 | 0.00 | 45 | 1054.7 |
| 20260903174919 | 94 | 148 | 4.0 | 8.0 | 0.00 | 0.00 | 0.00 | 46 | 1054.7 |
| 20260903174415 | 95 | 258 | 4.0 | 7.0 | 0.00 | 0.00 | 0.00 | 45 | 1055.0 |
| 20260903173914 | 95 | 216 | 3.0 | 6.0 | 0.00 | 0.00 | 0.00 | 48 | 1055.0 |
| 20260903173409 | 95 | 170 | 9.0 | 11.0 | 0.00 | 0.00 | 0.00 | 50 | 1055.0 |
| 20260903172905 | 94 | 182 | 1.0 | 7.0 | 0.00 | 0.00 | 0.00 | 49 | 1055.0 |
| 20260903172405 | 93 | 216 | 6.0 | 10.0 | 0.00 | 0.00 | 0.00 | 50 | 1055.1 |
| 20260903171900 | 93 | 217 | 5.0 | 14.0 | 0.00 | 0.00 | 0.00 | 52 | 1055.2 |
| 20260903171355 | 93 | 236 | 4.0 | 10.0 | 0.00 | 0.00 | 0.00 | 53 | 1055.2 |
| 20260903170855 | 93 | 169 | 3.0 | 11.0 | 0.00 | 0.00 | 0.00 | 52 | 1055.4 |
| 20260903170350 | 93 | 162 | 4.0 | 8.0 | 0.00 | 0.00 | 0.00 | 54 | 1055.5 |
| 20260903165848 | 93 | 157 | 4.0 | 8.0 | 0.00 | 0.00 | 0.00 | 54 | 1055.4 |
| 20260903165343 | 92 | 183 | 7.0 | 10.0 | 0.00 | 0.00 | 0.00 | 56 | 1055.4 |
| 20260903164837 | 92 | 188 | 2.0 | 4.0 | 0.00 | 0.00 | 0.00 | 56 | 1055.4 |
| 20260903164333 | 91 | 195 | 4.0 | 13.0 | 0.00 | 0.00 | 0.00 | 57 | 1055.4 |
| 20260903163832 | 92 | 263 | 5.0 | 9.0 | 0.00 | 0.00 | 0.00 | 56 | 1055.5 |
| 20260903163329 | 91 | 164 | 5.0 | 10.0 | 0.00 | 0.00 | 0.00 | 57 | 1055.5 |
| 20260903162825 | 90 | 195 | 5.0 | 9.0 | 0.00 | 0.00 | 0.00 | 58 | 1055.7 |
| 20260903162321 | 90 | 160 | 4.0 | 13.0 | 0.00 | 0.00 | 0.00 | 56 | 1055.7 |
| 20260903161817 | 90 | 243 | 9.0 | 15.0 | 0.00 | 0.00 | 0.00 | 58 | 1055.5 |
| 20260903161312 | 92 | 238 | 9.0 | 14.0 | 0.00 | 0.00 | 0.00 | 56 | 1055.5 |
| 20260903160807 | 90 | 162 | 1.0 | 6.0 | 0.00 | 0.00 | 0.00 | 60 | 1055.5 |
| 20260903160301 | 89 | 196 | 4.0 | 9.0 | 0.00 | 0.00 | 0.00 | 61 | 1055.5 |
| 20260903155758 | 89 | 201 | 7.0 | 9.0 | 0.00 | 0.00 | 0.00 | 62 | 1055.6 |
| 20260903155254 | 89 | 202 | 3.0 | 8.0 | 0.00 | 0.00 | 0.00 | 62 | 1055.5 |
| 20260903154749 | 88 | 165 | 2.0 | 13.0 | 0.00 | 0.00 | 0.00 | 64 | 1055.5 |
| 20260903154245 | 88 | 246 | 2.0 | 7.0 | 0.00 | 0.00 | 0.00 | 65 | 1055.6 |
| 20260903153741 | 88 | 203 | 6.0 | 8.0 | 0.00 | 0.00 | 0.00 | 66 | 1055.6 |
| 20260903153236 | 87 | 208 | 8.0 | 10.0 | 0.00 | 0.00 | 0.00 | 67 | 1055.6 |
| 20260903152732 | 86 | 273 | 6.0 | 10.0 | 0.00 | 0.00 | 0.00 | 69 | 1055.6 |
| 20260903152228 | 86 | 215 | 4.0 | 13.0 | 0.00 | 0.00 | 0.00 | 69 | 1055.5 |
| 20260903151728 | 86 | 262 | 7.0 | 11.0 | 0.00 | 0.00 | 0.00 | 68 | 1055.5 |
| 20260903151224 | 86 | 252 | 3.0 | 16.0 | 0.00 | 0.00 | 0.00 | 70 | 1055.6 |
| 20260903150718 | 87 | 210 | 3.0 | 10.0 | 0.00 | 0.00 | 0.00 | 69 | 1055.6 |
| 20260903150213 | 86 | 119 | 3.0 | 4.0 | 0.00 | 0.00 | 0.00 | 71 | 1055.4 |
| 20260903145708 | 85 | 213 | 2.0 | 17.0 | 0.00 | 0.00 | 0.00 | 72 | 1055.3 |
| 20260903145203 | 84 | 275 | 5.0 | 8.0 | 0.00 | 0.00 | 0.00 | 75 | 1055.4 |
| 20260903144702 | 85 | 228 | 7.0 | 11.0 | 0.00 | 0.00 | 0.00 | 74 | 1055.7 |
| 20260903144158 | 84 | 233 | 5.0 | 6.0 | 0.00 | 0.00 | 0.00 | 75 | 1055.5 |
| 20260903143654 | 84 | 242 | 7.0 | 8.0 | 0.00 | 0.00 | 0.00 | 76 | 1055.6 |
| 20260903143149 | 84 | 157 | 3.0 | 11.0 | 0.00 | 0.00 | 0.00 | 77 | 1055.4 |
| 20260903142645 | 83 | 200 | 3.0 | 8.0 | 0.00 | 0.00 | 0.00 | 77 | 1055.6 |
| 20260903142142 | 83 | 281 | 2.0 | 9.0 | 0.00 | 0.00 | 0.00 | 79 | 1055.6 |
| 20260903141642 | 82 | 238 | 4.0 | 9.0 | 0.00 | 0.00 | 0.00 | 80 | 1055.6 |
| 20260903141136 | 82 | 244 | 6.0 | 13.0 | 0.00 | 0.00 | 0.00 | 82 | 1055.6 |
| 20260903140633 | 82 | 170 | 4.0 | 10.0 | 0.00 | 0.00 | 0.00 | 82 | 1055.5 |
| 20260903140128 | 82 | 195 | 3.0 | 9.0 | 0.00 | 0.00 | 0.00 | 82 | 1055.6 |
| 20260903135624 | 82 | 233 | 6.0 | 10.0 | 0.00 | 0.00 | 0.00 | 82 | 1055.4 |
| 20260903135124 | 82 | 203 | 6.0 | 11.0 | 0.00 | 0.00 | 0.00 | 83 | 1055.6 |
| 20260903134623 | 81 | 226 | 6.0 | 9.0 | 0.00 | 0.00 | 0.00 | 83 | 1055.4 |
| 20260903134119 | 81 | 221 | 3.0 | 11.0 | 0.00 | 0.00 | 0.00 | 84 | 1055.6 |
| 20260903133616 | 81 | 239 | 9.0 | 14.0 | 0.00 | 0.00 | 0.00 | 84 | 1055.8 |
| 20260903133112 | 81 | 189 | 4.0 | 13.0 | 0.00 | 0.00 | 0.00 | 84 | 1055.7 |
| 20260903132607 | 81 | 192 | 8.0 | 15.0 | 0.00 | 0.00 | 0.00 | 84 | 1055.5 |
| 20260903132107 | 81 | 192 | 1.0 | 8.0 | 0.00 | 0.00 | 0.00 | 85 | 1055.6 |
| 20260903131602 | 80 | 116 | 1.0 | 6.0 | 0.00 | 0.00 | 0.00 | 86 | 1055.6 |
| 20260903131055 | 80 | 219 | 1.0 | 7.0 | 0.00 | 0.00 | 0.00 | 87 | 1055.5 |
| 20260903130550 | 80 | 198 | 6.0 | 7.0 | 0.00 | 0.00 | 0.00 | 87 | 1055.6 |
| 20260903130045 | 80 | 182 | 3.0 | 7.0 | 0.00 | 0.00 | 0.00 | 87 | 1055.5 |
| 20260903125543 | 79 | 201 | 4.0 | 10.0 | 0.00 | 0.00 | 0.00 | 88 | 1055.4 |
| 20260903125038 | 79 | 231 | 2.0 | 11.0 | 0.00 | 0.00 | 0.00 | 88 | 1055.2 |
| 20260903124532 | 79 | 231 | 3.0 | 8.0 | 0.00 | 0.00 | 0.00 | 88 | 1055.4 |
| 20260903124027 | 79 | 193 | 4.0 | 8.0 | 0.00 | 0.00 | 0.00 | 89 | 1055.2 |
| 20260903123526 | 79 | 184 | 4.0 | 6.0 | 0.00 | 0.00 | 0.00 | 89 | 1055.3 |
| 20260903123026 | 79 | 177 | 4.0 | 7.0 | 0.00 | 0.00 | 0.00 | 89 | 1055.3 |
| 20260903122525 | 79 | 225 | 4.0 | 7.0 | 0.00 | 0.00 | 0.00 | 89 | 1055.2 |
| 20260903122024 | 79 | 199 | 6.0 | 9.0 | 0.00 | 0.00 | 0.00 | 89 | 1055.2 |
| 20260903121519 | 79 | 212 | 5.0 | 11.0 | 0.00 | 0.00 | 0.00 | 89 | 1055.3 |
| 20260903121015 | 79 | 205 | 3.0 | 4.0 | 0.00 | 0.00 | 0.00 | 89 | 1055.1 |
| 20260903120514 | 79 | 190 | 8.0 | 10.0 | 0.00 | 0.00 | 0.00 | 89 | 1055.1 |
| 20260903120009 | 79 | 187 | 4.0 | 9.0 | 0.00 | 0.00 | 0.00 | 89 | 1055.1 |
| 20260903115508 | 79 | 189 | 2.0 | 7.0 | 0.00 | 0.00 | 0.00 | 89 | 1055.0 |
| 20260903115008 | 79 | 188 | 8.0 | 11.0 | 0.00 | 0.00 | 0.00 | 89 | 1054.7 |
| 20260903114503 | 79 | 196 | 4.0 | 8.0 | 0.00 | 0.00 | 0.00 | 89 | 1055.0 |
| 20260903113958 | 79 | 186 | 4.0 | 7.0 | 0.00 | 0.00 | 0.00 | 89 | 1055.1 |
| 20260903113454 | 79 | 218 | 4.0 | 10.0 | 0.00 | 0.00 | 0.00 | 89 | 1054.9 |
| 20260903112950 | 79 | 217 | 4.0 | 8.0 | 0.00 | 0.00 | 0.00 | 89 | 1054.8 |
| 20260903112446 | 79 | 194 | 3.0 | 4.0 | 0.00 | 0.00 | 0.00 | 89 | 1054.9 |
| 20260903111945 | 79 | 203 | 2.0 | 4.0 | 0.00 | 0.00 | 0.00 | 90 | 1054.7 |
| 20260903111445 | 79 | 182 | 4.0 | 9.0 | 0.00 | 0.00 | 0.00 | 90 | 1054.9 |
| 20260903110941 | 79 | 222 | 3.0 | 11.0 | 0.00 | 0.00 | 0.00 | 90 | 1054.8 |
| 20260903110437 | 79 | 221 | 4.0 | 8.0 | 0.00 | 0.00 | 0.00 | 90 | 1054.8 |
| 20260903105931 | 78 | 182 | 6.0 | 9.0 | 0.00 | 0.00 | 0.00 | 90 | 1054.8 |
| 20260903105427 | 78 | 212 | 4.0 | 8.0 | 0.00 | 0.00 | 0.00 | 91 | 1054.8 |
| 20260903104926 | 78 | 195 | 2.0 | 7.0 | 0.00 | 0.00 | 0.00 | 91 | 1054.6 |
| 20260903104425 | 78 | 209 | 3.0 | 10.0 | 0.00 | 0.00 | 0.00 | 91 | 1054.7 |
| 20260903103923 | 78 | 193 | 3.0 | 4.0 | 0.00 | 0.00 | 0.00 | 92 | 1054.7 |
| 20260903103418 | 78 | 199 | 4.0 | 8.0 | 0.00 | 0.00 | 0.00 | 92 | 1054.8 |
| 20260903102913 | 78 | 172 | 4.0 | 8.0 | 0.00 | 0.00 | 0.00 | 92 | 1054.6 |
| 20260903102408 | 78 | 192 | 2.0 | 8.0 | 0.00 | 0.00 | 0.00 | 92 | 1054.9 |
| 20260903101908 | 78 | 182 | 4.0 | 7.0 | 0.00 | 0.00 | 0.00 | 92 | 1054.7 |
| 20260903101403 | 78 | 197 | 4.0 | 9.0 | 0.00 | 0.00 | 0.00 | 92 | 1054.9 |
| 20260903100858 | 78 | 161 | 2.0 | 8.0 | 0.00 | 0.00 | 0.00 | 92 | 1054.7 |
| 20260903100353 | 78 | 209 | 3.0 | 9.0 | 0.00 | 0.00 | 0.00 | 92 | 1054.9 |
| 20260903095844 | 78 | 200 | 3.0 | 6.0 | 0.00 | 0.00 | 0.00 | 92 | 1054.7 |
| 20260903095338 | 78 | 176 | 4.0 | 8.0 | 0.00 | 0.00 | 0.00 | 92 | 1054.9 |
| 20260903094833 | 78 | 175 | 1.0 | 4.0 | 0.00 | 0.00 | 0.00 | 92 | 1054.8 |
| 20260903094328 | 78 | 196 | 2.0 | 7.0 | 0.00 | 0.00 | 0.00 | 92 | 1054.8 |
| 20260903093824 | 78 | 156 | 2.0 | 6.0 | 0.00 | 0.00 | 0.00 | 92 | 1054.8 |
| 20260903093319 | 78 | 194 | 2.0 | 4.0 | 0.00 | 0.00 | 0.00 | 92 | 1054.9 |
| 20260903092820 | 78 | 175 | 2.0 | 6.0 | 0.00 | 0.00 | 0.00 | 92 | 1054.9 |
| 20260903092314 | 78 | 210 | 5.0 | 8.0 | 0.00 | 0.00 | 0.00 | 91 | 1054.8 |
| 20260903091813 | 78 | 186 | 2.0 | 6.0 | 0.00 | 0.00 | 0.00 | 91 | 1054.9 |
| 20260903091307 | 78 | 179 | 5.0 | 9.0 | 0.00 | 0.00 | 0.00 | 91 | 1054.9 |
| 20260903090803 | 78 | 174 | 6.0 | 8.0 | 0.00 | 0.00 | 0.00 | 91 | 1054.9 |
| 20260903090302 | 78 | 192 | 2.0 | 6.0 | 0.00 | 0.00 | 0.00 | 91 | 1055.1 |
| 20260903085801 | 78 | 157 | 5.0 | 7.0 | 0.00 | 0.00 | 0.00 | 91 | 1054.8 |
| 20260903085255 | 78 | 166 | 4.0 | 7.0 | 0.00 | 0.00 | 0.00 | 91 | 1055.0 |
| 20260903084754 | 78 | 193 | 3.0 | 4.0 | 0.00 | 0.00 | 0.00 | 91 | 1054.9 |
| 20260903084248 | 78 | 191 | 2.0 | 8.0 | 0.00 | 0.00 | 0.00 | 90 | 1055.0 |
| 20260903083744 | 78 | 177 | 2.0 | 10.0 | 0.00 | 0.00 | 0.00 | 90 | 1055.0 |
| 20260903083244 | 78 | 220 | 3.0 | 7.0 | 0.00 | 0.00 | 0.00 | 90 | 1055.1 |
| 20260903082743 | 78 | 191 | 2.0 | 4.0 | 0.00 | 0.00 | 0.00 | 90 | 1054.9 |
| 20260903082239 | 78 | 159 | 2.0 | 7.0 | 0.00 | 0.00 | 0.00 | 89 | 1055.0 |
| 20260903081734 | 78 | 105 | 2.0 | 7.0 | 0.00 | 0.00 | 0.00 | 89 | 1055.0 |
| 20260903081230 | 78 | 197 | 2.0 | 9.0 | 0.00 | 0.00 | 0.00 | 89 | 1055.0 |
| 20260903080725 | 78 | 188 | 4.0 | 7.0 | 0.00 | 0.00 | 0.00 | 89 | 1055.0 |
| 20260903080223 | 78 | 187 | 2.0 | 6.0 | 0.00 | 0.00 | 0.00 | 88 | 1055.0 |
| 20260903075723 | 78 | 228 | 2.0 | 6.0 | 0.00 | 0.00 | 0.00 | 88 | 1055.1 |
| 20260903075218 | 79 | 168 | 4.0 | 9.0 | 0.00 | 0.00 | 0.00 | 88 | 1055.1 |
| 20260903074716 | 79 | 186 | 2.0 | 9.0 | 0.00 | 0.00 | 0.00 | 87 | 1055.3 |
| 20260903074211 | 79 | 139 | 3.0 | 7.0 | 0.00 | 0.00 | 0.00 | 87 | 1055.1 |
| 20260903073706 | 79 | 118 | 1.0 | 9.0 | 0.00 | 0.00 | 0.00 | 87 | 1055.1 |
| 20260903073201 | 79 | 194 | 4.0 | 7.0 | 0.00 | 0.00 | 0.00 | 86 | 1055.1 |
| 20260903072657 | 79 | 176 | 2.0 | 7.0 | 0.00 | 0.00 | 0.00 | 86 | 1055.3 |
| 20260903072154 | 79 | 166 | 5.0 | 7.0 | 0.00 | 0.00 | 0.00 | 86 | 1055.2 |
| 20260903071650 | 79 | 185 | 5.0 | 7.0 | 0.00 | 0.00 | 0.00 | 85 | 1055.1 |
| 20260903071146 | 79 | 191 | 4.0 | 8.0 | 0.00 | 0.00 | 0.00 | 84 | 1055.1 |
| 20260903070645 | 79 | 178 | 4.0 | 9.0 | 0.00 | 0.00 | 0.00 | 84 | 1055.3 |
| 20260903070141 | 80 | 187 | 6.0 | 8.0 | 0.00 | 0.00 | 0.00 | 83 | 1055.3 |
| 20260903065641 | 80 | 194 | 6.0 | 10.0 | 0.00 | 0.00 | 0.00 | 83 | 1055.3 |
| 20260903065136 | 80 | 129 | 3.0 | 7.0 | 0.00 | 0.00 | 0.00 | 82 | 1055.4 |
| 20260903064629 | 80 | 141 | 5.0 | 7.0 | 0.00 | 0.00 | 0.00 | 81 | 1055.3 |
| 20260903064125 | 80 | 147 | 3.0 | 10.0 | 0.00 | 0.00 | 0.00 | 80 | 1055.3 |
| 20260903063620 | 80 | 198 | 4.0 | 8.0 | 0.00 | 0.00 | 0.00 | 79 | 1055.2 |
| 20260903063115 | 80 | 195 | 4.0 | 9.0 | 0.00 | 0.00 | 0.00 | 79 | 1055.4 |
| 20260903062611 | 81 | 187 | 3.0 | 10.0 | 0.00 | 0.00 | 0.00 | 78 | 1055.4 |
| 20260903062106 | 81 | 99 | 4.0 | 7.0 | 0.00 | 0.00 | 0.00 | 77 | 1055.4 |
| 20260903061607 | 81 | 158 | 2.0 | 6.0 | 0.00 | 0.00 | 0.00 | 76 | 1055.6 |
| 20260903061106 | 81 | 197 | 4.0 | 7.0 | 0.00 | 0.00 | 0.00 | 76 | 1055.4 |
| 20260903060606 | 81 | 208 | 6.0 | 10.0 | 0.00 | 0.00 | 0.00 | 75 | 1055.7 |
| 20260903055559 | 82 | 166 | 10.0 | 17.0 | 0.00 | 0.00 | 0.00 | 74 | 1055.3 |
| 20260903055058 | 82 | 176 | 5.0 | 7.0 | 0.00 | 0.00 | 0.00 | 73 | 1055.5 |
| 20260903054553 | 82 | 164 | 3.0 | 7.0 | 0.00 | 0.00 | 0.00 | 72 | 1055.3 |
| 20260903054049 | 82 | 143 | 2.0 | 10.0 | 0.00 | 0.00 | 0.00 | 72 | 1055.5 |
| 20260903053544 | 82 | 183 | 5.0 | 10.0 | 0.00 | 0.00 | 0.00 | 71 | 1055.2 |
| 20260903053040 | 82 | 185 | 8.0 | 11.0 | 0.00 | 0.00 | 0.00 | 71 | 1055.5 |
| 20260903052536 | 82 | 142 | 7.0 | 11.0 | 0.00 | 0.00 | 0.00 | 71 | 1055.4 |
| 20260903052031 | 83 | 154 | 4.0 | 10.0 | 0.00 | 0.00 | 0.00 | 70 | 1055.4 |
| 20260903051531 | 83 | 149 | 7.0 | 13.0 | 0.00 | 0.00 | 0.00 | 69 | 1055.4 |
| 20260903051027 | 83 | 132 | 5.0 | 8.0 | 0.00 | 0.00 | 0.00 | 69 | 1055.2 |
| 20260903050525 | 83 | 112 | 6.0 | 14.0 | 0.00 | 0.00 | 0.00 | 68 | 1055.2 |
| 20260903050021 | 83 | 146 | 5.0 | 11.0 | 0.00 | 0.01 | 0.01 | 68 | 1055.2 |
| 20260903045521 | 83 | 133 | 6.0 | 8.0 | 0.00 | 0.01 | 0.01 | 68 | 1055.0 |
| 20260903045017 | 83 | 118 | 5.0 | 9.0 | 0.00 | 0.01 | 0.01 | 68 | 1055.1 |
| 20260903044513 | 83 | 128 | 4.0 | 8.0 | 0.00 | 0.01 | 0.01 | 68 | 1055.0 |
| 20260903044008 | 83 | 146 | 2.0 | 9.0 | 0.00 | 0.01 | 0.01 | 68 | 1055.1 |
| 20260903043504 | 83 | 123 | 3.0 | 7.0 | 0.00 | 0.01 | 0.01 | 68 | 1055.2 |
| 20260903043003 | 84 | 133 | 5.0 | 8.0 | 0.00 | 0.01 | 0.01 | 67 | 1055.1 |
| 20260903042458 | 84 | 142 | 3.0 | 7.0 | 0.00 | 0.01 | 0.01 | 67 | 1055.2 |
| 20260903041954 | 84 | 128 | 5.0 | 7.0 | 0.00 | 0.01 | 0.01 | 66 | 1054.9 |
| 20260903041450 | 84 | 129 | 6.0 | 10.0 | 0.00 | 0.01 | 0.01 | 66 | 1055.0 |
| 20260903040946 | 84 | 141 | 4.0 | 7.0 | 0.00 | 0.01 | 0.01 | 66 | 1054.9 |
| 20260903040444 | 85 | 141 | 5.0 | 10.0 | 0.00 | 0.01 | 0.01 | 65 | 1055.0 |
| 20260903035941 | 85 | 144 | 6.0 | 8.0 | 0.00 | 0.01 | 0.01 | 64 | 1054.9 |
| 20260903035436 | 84 | 148 | 6.0 | 10.0 | 0.00 | 0.01 | 0.01 | 64 | 1054.9 |
| 20260903034931 | 84 | 160 | 6.0 | 9.0 | 0.00 | 0.01 | 0.01 | 63 | 1055.0 |
| 20260903034426 | 83 | 118 | 4.0 | 10.0 | 0.00 | 0.01 | 0.01 | 64 | 1055.1 |
| 20260903033922 | 83 | 128 | 4.0 | 7.0 | 0.00 | 0.01 | 0.01 | 66 | 1055.1 |
| 20260903033417 | 83 | 126 | 3.0 | 4.0 | 0.00 | 0.01 | 0.01 | 67 | 1055.0 |
| 20260903032912 | 84 | 125 | 3.0 | 3.0 | 0.00 | 0.01 | 0.01 | 63 | 1054.7 |
| 20260903032408 | 84 | 119 | 1.0 | 2.0 | 0.00 | 0.01 | 0.01 | 63 | 1054.6 |
| 20260903031907 | 84 | 119 | 0.0 | 0.0 | 0.00 | 0.01 | 0.01 | 64 | 1054.5 |
| 20260903031407 | 84 | 119 | 0.0 | 2.0 | 0.00 | 0.01 | 0.01 | 63 | 1054.5 |
| 20260903030902 | 84 | 119 | 2.0 | 2.0 | 0.00 | 0.01 | 0.01 | 63 | 1054.5 |
| 20260903030358 | 84 | 119 | 1.0 | 2.0 | 0.00 | 0.01 | 0.01 | 63 | 1054.4 |
| 20260903025854 | 84 | 119 | 1.0 | 1.0 | 0.00 | 0.01 | 0.01 | 63 | 1054.4 |
| 20260903025349 | 84 | 119 | 0.0 | 1.0 | 0.00 | 0.01 | 0.01 | 63 | 1054.1 |
| 20260903024844 | 84 | 119 | 1.0 | 2.0 | 0.00 | 0.01 | 0.01 | 62 | 1054.4 |
| 20260903024343 | 84 | 112 | 1.0 | 1.0 | 0.00 | 0.01 | 0.01 | 63 | 1054.2 |
| 20260903023834 | 85 | 112 | 0.0 | 2.0 | 0.00 | 0.01 | 0.01 | 62 | 1054.2 |
| 20260903023329 | 86 | 112 | 0.0 | 0.0 | 0.00 | 0.01 | 0.01 | 59 | 1053.9 |
| 20260903022824 | 86 | 112 | 1.0 | 2.0 | 0.00 | 0.01 | 0.01 | 58 | 1053.7 |
| 20260903022323 | 86 | 112 | 0.0 | 0.0 | 0.00 | 0.01 | 0.01 | 58 | 1053.9 |
| 20260903021817 | 86 | 112 | 0.0 | 0.0 | 0.00 | 0.01 | 0.01 | 58 | 1053.8 |
| 20260903021313 | 87 | 112 | 0.0 | 0.0 | 0.00 | 0.01 | 0.01 | 58 | 1053.6 |
| 20260903020812 | 87 | 112 | 0.0 | 1.0 | 0.00 | 0.01 | 0.01 | 57 | 1053.3 |
| 20260903020307 | 87 | 105 | 1.0 | 2.0 | 0.00 | 0.01 | 0.01 | 56 | 1053.5 |
| 20260903015803 | 87 | 105 | 2.0 | 2.0 | 0.00 | 0.01 | 0.01 | 57 | 1053.4 |
| 20260903015257 | 87 | 95 | 1.0 | 2.0 | 0.00 | 0.01 | 0.01 | 57 | 1053.3 |
| 20260903014752 | 87 | 94 | 0.0 | 1.0 | 0.00 | 0.01 | 0.01 | 58 | 1053.3 |
| 20260903014247 | 88 | 128 | 0.0 | 0.0 | 0.00 | 0.01 | 0.01 | 56 | 1053.3 |
| 20260903013742 | 89 | 128 | 0.0 | 0.0 | 0.00 | 0.01 | 0.01 | 54 | 1053.2 |
| 20260903013241 | 89 | 128 | 0.0 | 0.0 | 0.00 | 0.01 | 0.01 | 54 | 1053.2 |
| 20260903012740 | 89 | 128 | 0.0 | 0.0 | 0.00 | 0.01 | 0.01 | 53 | 1053.0 |
| 20260903012239 | 90 | 128 | 0.0 | 0.0 | 0.00 | 0.01 | 0.01 | 53 | 1053.0 |
| 20260903011733 | 90 | 127 | 0.0 | 0.0 | 0.00 | 0.01 | 0.01 | 52 | 1053.0 |
| 20260903011228 | 91 | 128 | 0.0 | 0.0 | 0.00 | 0.01 | 0.01 | 51 | 1053.0 |
| 20260903010724 | 91 | 128 | 0.0 | 1.0 | 0.00 | 0.01 | 0.01 | 51 | 1053.0 |
| 20260903010223 | 91 | 128 | 0.0 | 1.0 | 0.00 | 0.01 | 0.01 | 50 | 1053.0 |
| 20260903005722 | 91 | 128 | 0.0 | 1.0 | 0.00 | 0.01 | 0.01 | 50 | 1052.9 |
| 20260903005217 | 92 | 128 | 0.0 | 1.0 | 0.00 | 0.01 | 0.01 | 49 | 1052.8 |
| 20260903004713 | 93 | 128 | 1.0 | 1.0 | 0.00 | 0.01 | 0.01 | 48 | 1052.9 |
| 20260903004208 | 93 | 147 | 1.0 | 2.0 | 0.00 | 0.01 | 0.01 | 47 | 1053.1 |
| 20260903003703 | 93 | 151 | 1.0 | 2.0 | 0.00 | 0.01 | 0.01 | 47 | 1052.9 |
| 20260903003159 | 94 | 141 | 1.0 | 1.0 | 0.00 | 0.01 | 0.01 | 46 | 1053.0 |
| 20260903002653 | 94 | 116 | 3.0 | 3.0 | 0.00 | 0.01 | 0.01 | 45 | 1053.0 |
| 20260903002148 | 94 | 104 | 2.0 | 3.0 | 0.00 | 0.01 | 0.01 | 45 | 1053.0 |
| 20260903001643 | 94 | 145 | 2.0 | 3.0 | 0.00 | 0.01 | 0.01 | 46 | 1053.0 |
| 20260903001142 | 94 | 119 | 2.0 | 3.0 | 0.00 | 0.01 | 0.01 | 45 | 1053.0 |
| 20260903000633 | 95 | 120 | 2.0 | 3.0 | 0.00 | 0.01 | 0.01 | 45 | 1053.0 |
| 20260903000132 | 95 | 120 | 2.0 | 2.0 | 0.00 | 0.01 | 0.01 | 44 | 1053.0 |
| 20260902235631 | 95 | 167 | 3.0 | 3.0 | 0.00 | 0.01 | 0.01 | 44 | 1052.9 |
| 20260902235126 | 95 | 119 | 2.0 | 4.0 | 0.00 | 0.01 | 0.01 | 43 | 1053.0 |
| 20260902234619 | 95 | 113 | 2.0 | 4.0 | 0.00 | 0.01 | 0.01 | 43 | 1053.0 |
| 20260902234118 | 95 | 124 | 3.0 | 4.0 | 0.00 | 0.01 | 0.01 | 43 | 1053.0 |
| 20260902233614 | 96 | 120 | 2.0 | 2.0 | 0.00 | 0.01 | 0.01 | 43 | 1053.2 |
| 20260902233108 | 96 | 159 | 2.0 | 6.0 | 0.00 | 0.01 | 0.01 | 42 | 1053.1 |
| 20260902232602 | 96 | 68 | 2.0 | 4.0 | 0.00 | 0.01 | 0.01 | 42 | 1053.1 |
| 20260902232101 | 96 | 123 | 3.0 | 3.0 | 0.00 | 0.01 | 0.01 | 42 | 1053.2 |
| 20260902231555 | 96 | 138 | 2.0 | 3.0 | 0.00 | 0.01 | 0.01 | 42 | 1053.2 |
| 20260902231050 | 96 | 173 | 3.0 | 6.0 | 0.00 | 0.01 | 0.01 | 42 | 1053.0 |
| 20260902230545 | 97 | 149 | 3.0 | 7.0 | 0.00 | 0.01 | 0.01 | 42 | 1052.8 |
| 20260902230044 | 97 | 188 | 5.0 | 6.0 | 0.00 | 0.01 | 0.01 | 41 | 1053.0 |
| 20260902225540 | 97 | 169 | 5.0 | 7.0 | 0.00 | 0.01 | 0.01 | 42 | 1053.1 |
| 20260902225039 | 97 | 174 | 5.0 | 8.0 | 0.00 | 0.01 | 0.01 | 42 | 1053.0 |
| 20260902224538 | 97 | 56 | 1.0 | 4.0 | 0.00 | 0.01 | 0.01 | 42 | 1053.0 |
| 20260902224034 | 98 | 155 | 3.0 | 4.0 | 0.00 | 0.01 | 0.01 | 41 | 1052.9 |
| 20260902223530 | 98 | 142 | 5.0 | 8.0 | 0.00 | 0.01 | 0.01 | 41 | 1053.1 |
| 20260902223029 | 97 | 143 | 1.0 | 6.0 | 0.00 | 0.01 | 0.01 | 43 | 1052.9 |
| 20260902222528 | 97 | 149 | 4.0 | 6.0 | 0.00 | 0.01 | 0.01 | 43 | 1053.2 |
| 20260902222026 | 97 | 126 | 3.0 | 4.0 | 0.00 | 0.01 | 0.01 | 43 | 1053.2 |
| 20260902221521 | 97 | 120 | 6.0 | 8.0 | 0.00 | 0.01 | 0.01 | 43 | 1053.1 |
| 20260902221017 | 96 | 188 | 5.0 | 8.0 | 0.00 | 0.01 | 0.01 | 45 | 1053.2 |
| 20260902220512 | 97 | 201 | 3.0 | 6.0 | 0.00 | 0.01 | 0.01 | 43 | 1053.3 |
| 20260902220006 | 97 | 193 | 6.0 | 7.0 | 0.00 | 0.01 | 0.01 | 42 | 1053.3 |
| 20260902215503 | 97 | 145 | 5.0 | 9.0 | 0.00 | 0.01 | 0.01 | 44 | 1053.4 |
| 20260902214958 | 98 | 161 | 1.0 | 8.0 | 0.00 | 0.01 | 0.01 | 43 | 1053.3 |
| 20260902214457 | 98 | 206 | 2.0 | 6.0 | 0.00 | 0.01 | 0.01 | 43 | 1053.5 |
| 20260902213955 | 97 | 132 | 5.0 | 9.0 | 0.00 | 0.01 | 0.01 | 43 | 1053.5 |
| 20260902213452 | 97 | 197 | 7.0 | 10.0 | 0.00 | 0.01 | 0.01 | 44 | 1053.4 |
| 20260902212951 | 96 | 146 | 1.0 | 9.0 | 0.00 | 0.01 | 0.01 | 44 | 1053.6 |
| 20260902212447 | 96 | 157 | 4.0 | 7.0 | 0.00 | 0.01 | 0.01 | 44 | 1053.5 |
| 20260902211943 | 95 | 174 | 5.0 | 10.0 | 0.00 | 0.01 | 0.01 | 46 | 1053.7 |
| 20260902211439 | 96 | 134 | 5.0 | 8.0 | 0.00 | 0.01 | 0.01 | 45 | 1053.6 |
| 20260902210933 | 95 | 125 | 3.0 | 8.0 | 0.00 | 0.01 | 0.01 | 46 | 1054.1 |
| 20260902210428 | 95 | 196 | 4.0 | 8.0 | 0.00 | 0.01 | 0.01 | 46 | 1053.6 |
| 20260902205926 | 95 | 165 | 2.0 | 7.0 | 0.00 | 0.01 | 0.01 | 46 | 1053.7 |
| 20260902205421 | 96 | 125 | 7.0 | 9.0 | 0.00 | 0.01 | 0.01 | 45 | 1053.8 |
| 20260902204912 | 98 | 163 | 3.0 | 9.0 | 0.00 | 0.01 | 0.01 | 43 | 1054.2 |
| 20260902204411 | 97 | 105 | 3.0 | 9.0 | 0.00 | 0.01 | 0.01 | 44 | 1054.1 |
| 20260902203907 | 96 | 58 | 4.0 | 4.0 | 0.00 | 0.01 | 0.01 | 45 | 1054.3 |
| 20260902203402 | 96 | 79 | 5.0 | 8.0 | 0.00 | 0.01 | 0.01 | 46 | 1054.2 |
| 20260902202856 | 96 | 188 | 3.0 | 4.0 | 0.00 | 0.01 | 0.01 | 46 | 1054.2 |
| 20260902202352 | 97 | 75 | 2.0 | 6.0 | 0.00 | 0.01 | 0.01 | 45 | 1054.4 |
| 20260902201849 | 95 | 64 | 2.0 | 3.0 | 0.00 | 0.01 | 0.01 | 50 | 1054.5 |
| 20260902201348 | 95 | 11 | 0.0 | 2.0 | 0.00 | 0.01 | 0.01 | 50 | 1054.6 |
| 20260902200843 | 93 | 46 | 0.0 | 1.0 | 0.00 | 0.01 | 0.01 | 55 | 1054.6 |
| 20260902200339 | 89 | 42 | 0.0 | 0.0 | 0.00 | 0.01 | 0.01 | 65 | 1054.6 |
| 20260902195834 | 87 | 42 | 0.0 | 0.0 | 0.00 | 0.01 | 0.01 | 68 | 1054.7 |
| 20260902195333 | 85 | 42 | 0.0 | 2.0 | 0.00 | 0.01 | 0.01 | 70 | 1054.8 |
| 20260902194828 | 82 | 29 | 1.0 | 2.0 | 0.00 | 0.01 | 0.01 | 73 | 1054.8 |
| 20260902194327 | 82 | 37 | 1.0 | 6.0 | 0.00 | 0.01 | 0.01 | 76 | 1055.0 |
| 20260902193823 | 81 | 53 | 3.0 | 7.0 | 0.00 | 0.01 | 0.01 | 74 | 1055.0 |
| 20260902193319 | 79 | 35 | 2.0 | 4.0 | 0.07 | 0.01 | 0.01 | 84 | 1055.2 |
| 20260902192818 | 80 | 37 | 3.0 | 11.0 | 0.07 | 0.01 | 0.01 | 83 | 1055.1 |
| 20260902192316 | 87 | 19 | 3.0 | 4.0 | 0.00 | 0.00 | 0.00 | 73 | 1055.4 |
| 20260902191816 | 95 | 90 | 2.0 | 10.0 | 0.00 | 0.00 | 0.00 | 45 | 1055.4 |
| 20260902191312 | 98 | 135 | 4.0 | 8.0 | 0.00 | 0.00 | 0.00 | 43 | 1055.2 |
| 20260902190807 | 98 | 122 | 3.0 | 6.0 | 0.00 | 0.00 | 0.00 | 42 | 1055.2 |
| 20260902190306 | 97 | 187 | 2.0 | 7.0 | 0.00 | 0.00 | 0.00 | 43 | 1055.4 |
| 20260902185803 | 95 | 186 | 2.0 | 3.0 | 0.00 | 0.00 | 0.00 | 44 | 1055.5 |
| 20260902185258 | 94 | 124 | 4.0 | 6.0 | 0.00 | 0.00 | 0.00 | 47 | 1055.4 |
| 20260902184754 | 95 | 30 | 2.0 | 3.0 | 0.00 | 0.00 | 0.00 | 45 | 1055.6 |